Regional Weather Roundup
Issued by NWS Huntsville, AL

Home | Current Version | Previous Version | Text Only | Print | Product List | Glossary On
Versions: 1 2 3 4 5 6 7 8 9 10 11 12 13 14 15 16 17 18 19 20 21 22 23 24 25 26 27 28 29 30 31 32 33 34 35 36 37 38 39 40 41 42 43 44 45 46 47 48 49 50
299
ASUS44 KHUN 172210
RWRHUN

WEATHER ROUNDUP FOR THE TENNESSEE VALLEY
NATIONAL WEATHER SERVICE HUNTSVILLE AL
400 PM CST TUE JAN 17 2017

ALZ001>004-172300-
NORTHWEST ALABAMA

CITY           SKY/WX    TMP DP  RH WIND       PRES   REMARKS
SHOALS AIRPORT CLOUDY    64  60  87 SW9       30.10R
SHOALS TVA RES   N/A     63 N/A N/A MISG        N/A
$$

ALZ005>007-016-172300-
NORTH CENTRAL ALABAMA

CITY           SKY/WX    TMP DP  RH WIND       PRES   REMARKS
CULLMAN AG STN   N/A     72 N/A N/A SW7         N/A
DECATUR AP     LGT RAIN  66  64  93 S7        30.09R
HUNTSVILLE AP  LGT RAIN  68  64  87 SW8       30.09R
MERIDIANVILLE  CLOUDY    66  59  77 SW10G17   30.08S
REDSTONE ARSN  LGT RAIN  67  62  84 SW10      30.08S
$$

ALZ008>010-172300-
NORTHEAST ALABAMA

CITY           SKY/WX    TMP DP  RH WIND       PRES   REMARKS
ALBERTVILLE    CLOUDY    70  63  78 SW7       30.11R
FORT PAYNE     CLOUDY    68  55  64 MISG      30.10S
SCOTTSBORO AP  MOCLDY    68  59  73 SW8G17    30.10S
SCOTTSBORO HCN   N/A     70 N/A N/A MISG        N/A
VALLEY HEAD      N/A     66 N/A N/A MISG        N/A
$$

TNZ076-096-097-172300-
SOUTHEASTERN MIDDLE TENNESSEE

CITY           SKY/WX    TMP DP  RH WIND       PRES   REMARKS
TULLAHOMA      NOT AVBL
$$

...SURROUNDING SITES...

CITY           SKY/WX    TMP DP  RH WIND       PRES   REMARKS
ATLANTA        MOCLDY    72  56  57 SW12      30.14R
ANNISTON       PTSUNNY   72  59  63 S9        30.13S
BIRMINGHAM     PTSUNNY   75  59  57 SW9       30.14R
CHATTANOOGA    CLOUDY    70  57  63 S8        30.08S
DALTON         CLOUDY    70  59  68 S6        30.11S
GADSDEN        PTSUNNY   72  61  68 S6        30.11R
GOLDEN TRNGL   PTSUNNY   70  59  68 NW9       30.08R
HALEYVILLE     LGT RAIN  64  62  93 SW5       30.13R
JACKSON TN     CLOUDY    54  45  71 W9        30.12R
MEMPHIS        CLOUDY    54  46  74 W6        30.13R
NASHVILLE      CLOUDY    62  54  74 W7        30.06R
OXFORD MS      LGT RAIN  54  54 100 SW5       30.14S
ROME           PTCLDY    73  56  54 SW8G17    30.09F
TUPELO         LGT RAIN  60  57  89 W3        30.13R
TUSCALOOSA     MOSUNNY   78  59  51 SW8       30.11R
$$

...GULF COAST WEATHER...

CITY           SKY/WX    TMP DP  RH WIND       PRES   REMARKS
GULFPORT       MOSUNNY   73  68  84 SE6       30.14R
PASCAGOULA     PTSUNNY   72  68  87 VRB6      30.15R
MOBILE         MOSUNNY   74  65  73 S14       30.15S
GULF SHORES    PTCLDY    72  71  98 S9        30.16F
PENSACOLA      PTSUNNY   74  67  78 S7        30.15F
DESTIN         MOSUNNY   73  68  84 SE6       30.18R
PANAMA CITY    PTSUNNY   68  66  93 SE10      30.19R
APPALACHICOLA  MOSUNNY   70  68  93 SE6       30.18S
$$





USA.gov is the U.S. government's official web portal to all federal, state and local government web resources and services.